Location: S�tio Afonso Gruber
(26.1760°S, 49.5250°W)
Time: 21:08:24
(UTC+00:00)

Cosmos 2016 Rocket - Pass Details

Date: 07 October 2020
Orbit: 946 x 1001 km, 83.0° (Epoch: 27 October)

Event Time Altitude Azimuth Distance (km) Brightness Sun altitude
Exits shadow 06:10:22 11° 37° (NE) 2,606 6.3 -35.1°
Maximum altitude 06:15:12 28° 92° (E) 1,741 5.7 -34.2°
Drops below altitude 10° 06:20:29 10° 149° (SSE) 2,766 7.0 -33.1°
Sets 06:23:22 0° 159° (SSE) 3,730 7.7 -32.5°
